Weather History for Fort Leonard Wood, MO

Change the Weather History Date:

Saturday, January 19, 2013

  Actual Average Record
Temperature  
Mean Temperature 52 °F -  
Max Temperature 64 °F 39 °F 68 °F (2006)
Min Temperature 41 °F 25 °F 4 °F (2008)
Degree Days  
Heating Degree Days 12    
Growing Degree Days 2 (Base 50)    
Moisture  
Dew Point 30 °F    
Average Humidity 47    
Maximum Humidity 64    
Minimum Humidity 29    
Precipitation  
Precipitation 0.00 in - - ()
Sea Level Pressure  
Sea Level Pressure 30.09 in    
Wind  
Wind Speed 10 mph (WSW)    
Max Wind Speed 17 mph    
Max Gust Speed 30 mph    
Visibility 10 miles    
Events      
Averages and records for this station are not official NWS values.
T = Trace of Precipitation, MM = Missing Value Source: NWS Daily Summary

Daily Weather History Graph

Daily Weather History Graph

Search for Another Location

Airport:

Trip Planner

Search our weather history database for the weather conditions in past years. The results will help you decide how hot, cold, wet, or windy it might be!

Date:

Astronomy

Jan. 19, 2013 Rise Set
Actual Time 7:20 AM CST 5:18 PM CST
Civil Twilight 6:52 AM CST 5:46 PM CST
Nautical Twilight 6:20 AM CST 6:18 PM CST
Astronomical Twilight 5:49 AM CST 6:49 PM CST
Moon 11:43 AM CST (1/19) 12:57 AM CST (1/19)
Length of Visible Light 10h 54m
Length of Day
9h 57m
First Quarter, 57% of the Moon is Illuminated
Jan 19
First Quarter
Jan 26
Full
Feb 3
Last Quarter
Feb 10
New
Feb 17
First Quarter

Hourly Weather History & Observations

Time (CST) Temp. Windchill Dew Point Humidity Pressure Visibility Wind Dir Wind Speed Gust Speed Precip Events Conditions
12:55 AM 41.9 °F 36.3 °F 26.6 °F 55% 30.16 in 10.0 mi SSW 9.2 mph - N/A   Clear
1:55 AM 41.4 °F 35.7 °F 25.7 °F 54% 30.15 in 10.0 mi SSW 9.2 mph - N/A   Clear
2:55 AM 41.4 °F 35.7 °F 25.0 °F 52% 30.14 in 10.0 mi SSW 9.2 mph - N/A   Clear
3:55 AM 41.7 °F 37.3 °F 24.8 °F 51% 30.12 in 10.0 mi SSW 6.9 mph 17.3 mph N/A   Clear
4:55 AM 41.7 °F 36.7 °F 25.2 °F 52% 30.11 in 10.0 mi SSW 8.1 mph 17.3 mph N/A   Clear
5:55 AM 41.5 °F 35.4 °F 25.3 °F 53% 30.11 in 10.0 mi SSW 10.4 mph - N/A   Clear
6:55 AM 41.4 °F 34.7 °F 26.1 °F 55% 30.10 in 10.0 mi SSW 11.5 mph 17.3 mph N/A   Clear
7:55 AM 42.4 °F 36.5 °F 27.3 °F 55% 30.09 in 10.0 mi SW 10.4 mph 18.4 mph N/A   Clear
8:55 AM 46.0 °F 41.4 °F 28.8 °F 51% 30.09 in 10.0 mi SW 9.2 mph 23.0 mph N/A   Clear
9:55 AM 51.4 °F - 30.4 °F 44% 30.09 in 10.0 mi SW 11.5 mph 24.2 mph N/A   Clear
10:55 AM 57.0 °F - 31.5 °F 38% 30.07 in 10.0 mi WSW 11.5 mph 27.6 mph N/A   Clear
11:55 AM 61.3 °F - 31.5 °F 32% 30.03 in 10.0 mi SW 13.8 mph 24.2 mph N/A   Clear
12:55 PM 62.6 °F - 32.0 °F 32% 30.01 in 10.0 mi SW 15.0 mph 27.6 mph N/A   Clear
1:55 PM 64.0 °F - 31.5 °F 30% 29.99 in 10.0 mi WSW 17.3 mph 29.9 mph N/A   Clear
2:55 PM 64.0 °F - 31.3 °F 29% 29.99 in 10.0 mi WSW 15.0 mph 26.5 mph N/A   Clear
3:55 PM 63.7 °F - 31.1 °F 29% 30.00 in 10.0 mi WSW 10.4 mph 21.9 mph N/A   Clear
4:55 PM 61.0 °F - 31.3 °F 33% 30.03 in 10.0 mi West 8.1 mph - N/A   Clear
5:55 PM 57.6 °F - 33.1 °F 40% 30.06 in 10.0 mi West 5.8 mph - N/A   Clear
6:55 PM 54.0 °F - 33.8 °F 46% 30.09 in 10.0 mi WNW 4.6 mph - N/A   Clear
7:55 PM 51.4 °F - 35.1 °F 54% 30.12 in 10.0 mi West 5.8 mph - N/A   Clear
8:55 PM 49.3 °F - 36.1 °F 61% 30.13 in 10.0 mi WSW 6.9 mph - N/A   Clear
9:55 PM 48.6 °F - 36.7 °F 64% 30.14 in 10.0 mi West 8.1 mph - N/A   Clear
10:55 PM 47.8 °F - 34.7 °F 60% 30.17 in 10.0 mi NW 8.1 mph - N/A   Clear
11:55 PM 44.4 °F 39.0 °F 32.5 °F 63% 30.18 in 10.0 mi NW 10.4 mph - N/A   Clear